Date String (YYYY-MM-DD hh:mm:ss) UTC,Instrument flags,Ambient pressure (hPa),Sample flow (lpm),Bypass flow (lpm),Sample temperature (°C),Ambient temperature (°C),ASC tube jacket temperature (°C),LED temperature (°C),Box temperature (°C),Sample RH (%),Span deviation,Mass concentration (μg/m³),Mass concentration (μg/m³),Mass concentration (μg/m³)
DateTimeUTC,F1_M11,P_M11,Q1_M11,Q2_M11,T1_M11,T2_M11,T3_M11,T4_M11,T5_M11,U1_M11,ZSPAN_M11,X0_M11,X2_M11,X1_M11
2022-02-05 09:00:00,,0827.0,4.99,0.00,21.8,20.8,00.0,31.0,23.3,06.4,0000.0,0002.30,0000.40,0000.24
2022-02-05 09:01:00,,0826.9,5.01,0.00,21.7,20.7,00.0,30.9,23.2,06.6,0000.0,0002.61,0000.42,0000.24
2022-02-05 09:02:00,,0827.0,5.00,0.00,21.8,21.3,00.0,30.9,23.4,05.8,0000.0,0002.53,0000.41,0000.24
2022-02-05 09:03:00,,0827.1,5.01,0.00,21.9,22.4,00.0,31.0,23.7,06.6,0000.0,0002.39,0000.40,0000.24
2022-02-05 09:04:00,,0827.1,4.99,0.00,22.1,23.1,00.0,31.0,24.0,06.9,0000.0,0002.37,0000.39,0000.23
2022-02-05 09:05:00,,0827.1,5.00,0.00,22.2,22.9,00.0,31.1,24.1,07.2,0000.0,0002.24,0000.37,0000.22
2022-02-05 09:06:00,,0827.1,5.00,0.00,22.2,22.6,00.0,31.1,24.0,06.6,0000.0,0002.31,0000.37,0000.23
2022-02-05 09:07:00,,0827.1,5.01,0.00,22.1,22.3,00.0,31.1,23.9,06.3,0000.0,0002.22,0000.38,0000.23
2022-02-05 09:08:00,,0827.1,4.99,0.00,22.1,22.0,00.0,31.1,23.8,06.7,0000.0,0002.05,0000.41,0000.24
2022-02-05 09:09:00,,0827.1,4.99,0.00,22.1,21.8,00.0,31.1,23.7,06.3,0000.0,0002.06,0000.43,0000.24
2022-02-05 09:10:00,,0826.9,4.99,0.00,22.0,21.7,00.0,31.0,23.6,06.3,0000.0,0001.34,0000.41,0000.24
2022-02-05 09:11:00,,0826.9,5.01,0.00,22.0,21.5,00.0,31.0,23.6,05.7,0000.0,0001.15,0000.39,0000.23
2022-02-05 09:12:00,,0826.9,5.01,0.00,22.0,21.4,00.0,31.0,23.5,05.8,0000.0,0000.88,0000.38,0000.23
2022-02-05 09:13:00,,0826.9,4.99,0.00,21.9,21.3,00.0,31.0,23.5,05.9,0000.0,0000.85,0000.39,0000.24
2022-02-05 09:14:00,,0826.8,5.00,0.00,21.9,21.2,00.0,31.0,23.5,06.2,0000.0,0000.87,0000.38,0000.24
2022-02-05 09:15:00,,0826.8,5.01,0.00,21.9,21.1,00.0,31.0,23.5,06.3,0000.0,0001.02,0000.41,0000.24
2022-02-05 09:16:00,,0826.7,4.99,0.00,21.8,21.1,00.0,31.0,23.4,06.1,0000.0,0000.95,0000.40,0000.24
2022-02-05 09:17:00,,0826.6,5.00,0.00,21.8,21.1,00.0,31.0,23.4,06.2,0000.0,0000.83,0000.38,0000.24
2022-02-05 09:18:00,,0826.7,4.99,0.00,21.9,21.9,00.0,31.0,23.6,06.4,0000.0,0000.72,0000.35,0000.23
2022-02-05 09:19:00,,0826.6,5.00,0.00,22.0,22.9,00.0,31.0,24.0,06.3,0000.0,0001.10,0000.33,0000.23
2022-02-05 09:20:00,,0826.6,5.01,0.00,22.2,23.1,00.0,31.1,24.1,06.0,0000.0,0001.97,0000.33,0000.22
2022-02-05 09:21:00,,0826.4,5.00,0.00,22.2,22.7,00.0,31.1,24.1,06.3,0000.0,0002.19,0000.37,0000.21
2022-02-05 09:22:00,,0826.5,4.99,0.00,22.2,22.4,00.0,31.1,23.9,06.4,0000.0,0002.68,0000.38,0000.21
2022-02-05 09:23:00,,0826.4,5.01,0.00,22.1,22.1,00.0,31.1,23.8,06.7,0000.0,0002.66,0000.37,0000.20
2022-02-05 09:24:00,,0826.4,4.99,0.00,22.1,21.8,00.0,31.1,23.7,06.9,0000.0,0002.94,0000.39,0000.20
2022-02-05 09:25:00,,0826.4,4.98,0.00,22.1,21.6,00.0,31.1,23.7,06.2,0000.0,0002.97,0000.40,0000.20
2022-02-05 09:26:00,,0826.2,5.01,0.00,22.0,21.4,00.0,31.1,23.6,06.1,0000.0,0002.79,0000.37,0000.20
2022-02-05 09:27:00,,0826.1,4.99,0.00,22.0,21.3,00.0,31.0,23.6,06.1,0000.0,0002.86,0000.39,0000.20
2022-02-05 09:28:00,,0826.2,5.01,0.00,22.0,21.2,00.0,31.0,23.6,06.5,0000.0,0002.94,0000.42,0000.19
2022-02-05 09:29:00,,0826.3,4.99,0.00,22.0,21.1,00.0,31.0,23.5,06.5,0000.0,0002.99,0000.44,0000.19
2022-02-05 09:30:00,,0826.2,4.99,0.00,22.0,21.3,00.0,31.0,23.5,06.2,0000.0,0002.68,0000.45,0000.19
2022-02-05 09:31:00,,0826.2,5.00,0.00,22.1,22.2,00.0,31.1,23.8,06.7,0000.0,0002.27,0000.44,0000.20
2022-02-05 09:32:00,,0826.2,5.01,0.00,22.2,23.1,00.0,31.1,24.1,06.5,0000.0,0002.15,0000.40,0000.20
2022-02-05 09:33:00,,0826.2,4.98,0.00,22.3,23.1,00.0,31.1,24.2,06.3,0000.0,0001.65,0000.39,0000.20
2022-02-05 09:34:00,,0826.3,5.01,0.00,22.3,22.7,00.0,31.2,24.1,06.3,0000.0,0001.77,0000.39,0000.20
2022-02-05 09:35:00,,0826.3,4.99,0.00,22.2,22.3,00.0,31.2,23.9,06.5,0000.0,0002.01,0000.39,0000.20
2022-02-05 09:36:00,,0826.3,5.01,0.00,22.2,22.0,00.0,31.2,23.9,06.3,0000.0,0002.01,0000.41,0000.20
2022-02-05 09:37:00,,0826.5,4.99,0.00,22.2,21.8,00.0,31.2,23.8,06.2,0000.0,0002.29,0000.41,0000.20
2022-02-05 09:38:00,,0826.5,5.01,0.00,22.1,21.5,00.0,31.2,23.7,06.7,0000.0,0002.58,0000.41,0000.20
2022-02-05 09:39:00,,0826.5,4.99,0.00,22.1,21.4,00.0,31.1,23.6,06.0,0000.0,0002.51,0000.39,0000.21
2022-02-05 09:40:00,,0826.5,5.01,0.00,22.0,21.3,00.0,31.1,23.6,06.1,0000.0,0002.60,0000.41,0000.20
2022-02-05 09:41:00,,0826.5,5.00,0.00,22.0,21.2,00.0,31.1,23.5,06.7,0000.0,0003.48,0000.41,0000.21
2022-02-05 09:42:00,,0826.5,5.00,0.00,21.9,21.1,00.0,31.1,23.5,06.5,0000.0,0003.38,0000.41,0000.21
2022-02-05 09:43:00,,0826.5,5.00,0.00,21.9,21.2,00.0,31.0,23.4,06.0,0000.0,0003.32,0000.42,0000.21
2022-02-05 09:44:00,,0826.5,5.00,0.00,22.0,22.0,00.0,31.1,23.7,06.2,0000.0,0003.26,0000.41,0000.21
2022-02-05 09:45:00,,0826.5,5.00,0.00,22.1,22.9,00.0,31.1,24.0,05.7,0000.0,0003.12,0000.41,0000.21
2022-02-05 09:46:00,,0826.5,4.99,0.00,22.3,23.3,00.0,31.2,24.2,05.3,0000.0,0002.70,0000.40,0000.22
2022-02-05 09:47:00,,0826.5,5.01,0.00,22.3,23.0,00.0,31.2,24.2,05.3,0000.0,0002.56,0000.38,0000.21
2022-02-05 09:48:00,,0826.5,5.00,0.00,22.3,22.7,00.0,31.2,24.1,05.3,0000.0,0002.46,0000.37,0000.21
2022-02-05 09:49:00,,0826.5,5.00,0.00,22.3,22.4,00.0,31.2,24.1,05.3,0000.0,0002.03,0000.36,0000.21
2022-02-05 09:50:00,,0826.6,5.00,0.00,22.3,22.2,00.0,31.2,24.0,05.4,0000.0,0001.99,0000.34,0000.21
2022-02-05 09:51:00,,0826.6,5.00,0.00,22.3,22.0,00.0,31.2,24.0,05.3,0000.0,0001.87,0000.30,0000.21
2022-02-05 09:52:00,,0826.6,4.99,0.00,22.2,21.9,00.0,31.2,23.9,05.2,0000.0,0000.94,0000.33,0000.21
2022-02-05 09:53:00,,0826.5,5.00,0.00,22.2,21.8,00.0,31.2,23.9,05.4,0000.0,0000.65,0000.35,0000.21
2022-02-05 09:54:00,,0826.5,5.01,0.00,22.2,21.7,00.0,31.2,23.9,05.5,0000.0,0000.62,0000.34,0000.21
2022-02-05 09:55:00,,0826.5,5.00,0.00,22.2,21.6,00.0,31.2,23.8,05.5,0000.0,0000.62,0000.34,0000.21
2022-02-05 09:56:00,,0826.5,5.01,0.00,22.2,21.5,00.0,31.2,23.8,06.0,0000.0,0001.19,0000.36,0000.22
2022-02-05 09:57:00,,0826.5,5.01,0.00,22.1,21.5,00.0,31.2,23.8,05.8,0000.0,0001.84,0000.37,0000.23
2022-02-05 09:58:00,,0826.5,4.99,0.00,22.1,21.5,00.0,31.2,23.8,05.8,0000.0,0002.34,0000.36,0000.24
2022-02-05 09:59:00,,0826.5,5.00,0.00,22.1,21.5,00.0,31.2,23.8,05.6,0000.0,0003.97,0000.37,0000.24
